Wahpeton, MN

2:58 AM CST on December 11, 2019 (GMT -0600)
Stern

Weather History for KBWP - October, 2019

Change the Weather History Date:

Wednesday, October 16, 2019

  Actual Average (KFFM) Record (KFFM)
Temperature  
Mean Temperature 38 °F -  
Max Temperature 42 °F 52 °F 79 °F (1953)
Min Temperature 35 °F 32 °F 20 °F (1952)
Degree Days  
Heating Degree Days 26    
Moisture  
Dew Point 34 °F    
Average Humidity 82    
Maximum Humidity 93    
Minimum Humidity 70    
Precipitation  
Precipitation 0.00 in - - ()
Sea Level Pressure  
Sea Level Pressure 30.11 in    
Wind  
Wind Speed 6 mph ()    
Max Wind Speed 9 mph    
Max Gust Speed -    
Visibility 10.0 miles    
Events      
Averages and records for this station are not official NWS values.
T = Trace of Precipitation, MM = Missing Value Source: Averaged Metar Reports

Daily Weather History Graph

Daily Weather History Graph

Search for Another Location

Airport or City:

Astronomy

Oct. 16, 2019 Rise Set
Actual Time 7:44 AM CDT 6:38 PM CDT
Civil Twilight 7:14 AM CDT 7:08 PM CDT
Nautical Twilight 6:39 AM CDT 7:43 PM CDT
Astronomical Twilight 6:04 AM CDT 8:18 PM CDT
Moon 8:24 PM CDT (10/16) 10:23 AM CDT (10/16)
Length of Visible Light 11h 54m
Length of Day
10h 53m
Waning Gibbous, 92% of the Moon is Illuminated
Oct 16
Waning Gibbous
Oct 21
Last Quarter
Oct 27
New
Nov 4
First Quarter
Nov 12
Full

Hourly Weather History & Observations

Time (CDT) Temp. Windchill Dew Point Humidity Pressure Visibility Wind Dir Wind Speed Gust Speed Precip Events Conditions
12:15 AM 37.4 °F 30.8 °F 32.0 °F 81% 30.16 in 10.0 mi NW 9.2 mph - N/A   Unknown
12:35 AM 37.4 °F 32.1 °F 32.0 °F 81% 30.16 in 10.0 mi NNW 6.9 mph - N/A   Unknown
12:55 AM 37.4 °F 30.8 °F 33.8 °F 87% 30.17 in 10.0 mi NW 9.2 mph - N/A   Unknown
1:15 AM 37.4 °F 32.8 °F 33.8 °F 87% 30.17 in 10.0 mi NW 5.8 mph - N/A   Unknown
1:35 AM 37.4 °F 32.1 °F 33.8 °F 87% 30.17 in 10.0 mi NW 6.9 mph - N/A   Unknown
1:55 AM 37.4 °F 31.4 °F 33.8 °F 87% 30.17 in 10.0 mi NW 8.1 mph - N/A   Unknown
2:15 AM 37.4 °F 30.8 °F 33.8 °F 87% 30.17 in 10.0 mi NW 9.2 mph - N/A   Unknown
2:35 AM 37.4 °F 31.4 °F 33.8 °F 87% 30.18 in 10.0 mi NW 8.1 mph - N/A   Unknown
2:55 AM 37.4 °F 30.8 °F 32.0 °F 81% 30.18 in 10.0 mi NW 9.2 mph - N/A   Unknown
3:15 AM 37.4 °F 32.1 °F 32.0 °F 81% 30.18 in 10.0 mi NNW 6.9 mph - N/A   Unknown
3:35 AM 37.4 °F 32.8 °F 32.0 °F 81% 30.17 in 10.0 mi NNW 5.8 mph - N/A   Unknown
3:55 AM 37.4 °F 30.8 °F 32.0 °F 81% 30.17 in 10.0 mi NNW 9.2 mph - N/A   Unknown
4:15 AM 37.4 °F 33.8 °F 32.0 °F 81% 30.17 in 10.0 mi NW 4.6 mph - N/A   Unknown
4:35 AM 37.4 °F 32.8 °F 33.8 °F 87% 30.16 in 10.0 mi WNW 5.8 mph - N/A   Unknown
4:55 AM 37.4 °F 30.8 °F 33.8 °F 87% 30.16 in 10.0 mi NW 9.2 mph - N/A   Unknown
5:35 AM 37.4 °F 32.1 °F 33.8 °F 87% 30.17 in 10.0 mi NW 6.9 mph - N/A   Unknown
5:55 AM 37.4 °F 32.1 °F 33.8 °F 87% 30.16 in 10.0 mi NW 6.9 mph - N/A   Unknown
6:15 AM 35.6 °F 30.7 °F 33.8 °F 93% 30.16 in 10.0 mi NW 5.8 mph - N/A   Unknown
6:35 AM 37.4 °F 32.8 °F 33.8 °F 87% 30.16 in 10.0 mi NW 5.8 mph - N/A   Unknown
6:55 AM 35.6 °F 31.7 °F 33.8 °F 93% 30.16 in 10.0 mi NW 4.6 mph - N/A   Unknown
7:15 AM 35.6 °F 30.7 °F 33.8 °F 93% 30.15 in 10.0 mi NW 5.8 mph - N/A   Unknown
7:35 AM 35.6 °F 30.7 °F 33.8 °F 93% 30.16 in 10.0 mi NW 5.8 mph - N/A   Unknown
7:55 AM 35.6 °F 30.7 °F 33.8 °F 93% 30.16 in 10.0 mi WNW 5.8 mph - N/A   Unknown
8:15 AM 35.6 °F 31.7 °F 33.8 °F 93% 30.16 in 10.0 mi NW 4.6 mph - N/A   Unknown
8:35 AM 37.4 °F 32.8 °F 33.8 °F 87% 30.16 in 10.0 mi NW 5.8 mph - N/A   Unknown
9:15 AM 37.4 °F 33.8 °F 33.8 °F 87% 30.16 in 10.0 mi NNW 4.6 mph - N/A   Unknown
9:35 AM 37.4 °F 32.8 °F 33.8 °F 87% 30.16 in 10.0 mi NW 5.8 mph - N/A   Unknown
9:55 AM 37.4 °F 32.8 °F 33.8 °F 87% 30.17 in 10.0 mi NW 5.8 mph - N/A   Unknown
10:15 AM 37.4 °F 32.8 °F 33.8 °F 87% 30.16 in 10.0 mi NW 5.8 mph - N/A   Unknown
10:35 AM 37.4 °F 32.8 °F 33.8 °F 87% 30.16 in 10.0 mi WNW 5.8 mph - N/A   Unknown
10:55 AM 37.4 °F 33.8 °F 33.8 °F 87% 30.15 in 10.0 mi WNW 4.6 mph - N/A   Unknown
11:35 AM 39.2 °F - 33.8 °F 81% 30.16 in 10.0 mi Calm Calm - N/A   Unknown
11:55 AM 39.2 °F 37.0 °F 33.8 °F 81% 30.16 in 10.0 mi WNW 3.5 mph - N/A   Unknown
12:15 PM 41.0 °F 39.0 °F 33.8 °F 76% 30.16 in 10.0 mi NW 3.5 mph - N/A   Unknown
12:35 PM 41.0 °F 39.0 °F 33.8 °F 76% 30.15 in 10.0 mi WNW 3.5 mph - N/A   Unknown
12:55 PM 41.0 °F 39.0 °F 33.8 °F 76% 30.14 in 10.0 mi WNW 3.5 mph - N/A   Unknown
1:15 PM 41.0 °F 38.0 °F 33.8 °F 76% 30.13 in 10.0 mi West 4.6 mph - N/A   Unknown
1:35 PM 41.0 °F - 33.8 °F 76% 30.13 in 10.0 mi Calm Calm - N/A   Unknown
1:55 PM 42.8 °F 41.1 °F 33.8 °F 70% 30.12 in 10.0 mi West 3.5 mph - N/A   Unknown
2:15 PM 42.8 °F - 33.8 °F 70% 30.11 in 10.0 mi Calm Calm - N/A   Unknown
2:35 PM 42.8 °F - 33.8 °F 70% 30.09 in 10.0 mi Calm Calm - N/A   Unknown
2:55 PM 42.8 °F - 33.8 °F 70% 30.08 in 10.0 mi Calm Calm - N/A   Unknown
3:15 PM 42.8 °F - 33.8 °F 70% 30.07 in 10.0 mi Calm Calm - N/A   Unknown
3:35 PM 42.8 °F - 33.8 °F 70% 30.08 in 10.0 mi Calm Calm - N/A   Unknown
3:55 PM 42.8 °F - 33.8 °F 70% 30.06 in 10.0 mi Calm Calm - N/A   Unknown
4:15 PM 42.8 °F - 33.8 °F 70% 30.05 in 10.0 mi Calm Calm - N/A   Unknown
4:35 PM 42.8 °F 41.1 °F 33.8 °F 70% 30.05 in 10.0 mi South 3.5 mph - N/A   Unknown
4:55 PM 42.8 °F 41.1 °F 33.8 °F 70% 30.05 in 10.0 mi SSE 3.5 mph - N/A   Unknown
5:15 PM 42.8 °F 38.6 °F 33.8 °F 70% 30.03 in 10.0 mi SSE 6.9 mph - N/A   Unknown
5:35 PM 42.8 °F 38.6 °F 35.6 °F 76% 30.02 in 10.0 mi SSE 6.9 mph - N/A   Unknown
5:55 PM 42.8 °F 40.1 °F 35.6 °F 76% 30.02 in 10.0 mi SE 4.6 mph - N/A   Unknown
6:35 PM 42.8 °F 38.6 °F 33.8 °F 70% 30.02 in 10.0 mi SE 6.9 mph - N/A   Unknown
6:55 PM 42.8 °F 40.1 °F 35.6 °F 76% 30.02 in 10.0 mi SSE 4.6 mph - N/A   Unknown
7:15 PM 41.0 °F 38.0 °F 35.6 °F 81% 30.01 in 10.0 mi SSE 4.6 mph - N/A   Unknown
7:35 PM 41.0 °F 38.0 °F 35.6 °F 81% 30.02 in 10.0 mi SSE 4.6 mph - N/A   Unknown
7:55 PM 41.0 °F 38.0 °F 35.6 °F 81% 30.02 in 10.0 mi SE 4.6 mph - N/A   Unknown
8:15 PM 39.2 °F 35.0 °F 33.8 °F 81% 30.02 in 10.0 mi SE 5.8 mph - N/A   Unknown
8:35 PM 39.2 °F 34.2 °F 33.8 °F 81% 30.01 in 10.0 mi SE 6.9 mph - N/A   Unknown
8:55 PM 37.4 °F 32.1 °F 33.8 °F 87% 30.01 in 10.0 mi SE 6.9 mph - N/A   Unknown
9:15 PM 37.4 °F 33.8 °F 33.8 °F 87% 30.01 in 10.0 mi SSE 4.6 mph - N/A   Unknown
9:35 PM 37.4 °F 32.8 °F 33.8 °F 87% 30.01 in 10.0 mi SSE 5.8 mph - N/A   Unknown
9:55 PM 35.6 °F 31.7 °F 33.8 °F 93% 30.02 in 10.0 mi SE 4.6 mph - N/A   Unknown
10:15 PM 35.6 °F 31.7 °F 33.8 °F 93% 30.02 in 10.0 mi SE 4.6 mph - N/A   Unknown
10:35 PM 35.6 °F 30.7 °F 32.0 °F 87% 30.02 in 10.0 mi SE 5.8 mph - N/A   Unknown
10:55 PM 35.6 °F 31.7 °F 32.0 °F 87% 30.02 in 10.0 mi SE 4.6 mph - N/A   Unknown
11:15 PM 35.6 °F 29.9 °F 32.0 °F 87% 30.01 in 10.0 mi ESE 6.9 mph - N/A   Unknown
11:35 PM 35.6 °F 29.9 °F 32.0 °F 87% 30.01 in 10.0 mi SE 6.9 mph - N/A   Unknown
11:55 PM 35.6 °F 29.9 °F 32.0 °F 87% 30.00 in 10.0 mi SE 6.9 mph - N/A   Unknown